User: anonymous   Login
Location: Unspecified
(0.0000°N, 0.0000°E)
Time: 02:52:08
(UTC+00:00)
Language:

NO-84 - Orbit

View from above orbital plane
View from above orbital plane
View from above satellite
View from above satellite

Ground track
Ground track

The orbit data is extracted from the following two-line orbital elements,

1 40654U 15025D   18018.36924391  .00007293  00000-0  12554-3 0 01989
2 40654 054.9932 351.7822 0169835 089.2179 272.8263 15.37930017032774
Epoch (UTC): 18 January 2018 08:51:42
Eccentricity: 0.0169835
inclination: 54.9932°
perigee height: 336 km
apogee height: 568 km
right ascension of ascending node: 351.7822°
argument of perigee: 89.2179°
revolutions per day: 15.37930017
mean anomaly at epoch: 272.8263°
orbit number at epoch: 3277

The dashed part of the orbit path shows where the satellite is in the earth's shadow,  

DLR